Tracking 18917 objects as of 16-Jan-2018
HD Live streaming from Space Station
objects crossing your sky now

SL-16 R/B

Track SL-16 R/B now!
10-day predictions
SL-16 R/B is classified as:


NORAD ID: 25407
Int'l Code: 1998-045B
Perigee: 839.6 km
Apogee: 854.1 km
Inclination: 71.0 °
Period: 101.7 minutes
Semi major axis: 7217 km
RCS: 12.0191 m2 (large)
Launch date: July 28, 1998
Source: Commonwealth of Independent States (former USSR) (CIS)
Launch site: TYURATAM MISSILE AND SPACE COMPLEX (TTMTR)

Note: This is a ROCKET BODY
aabbcc
Your satellite tracking list
Your tracking list is empty




NASA's NSSDC Master Catalog

Two Line Element Set (TLE):
1 25407U 98045B   18016.31486593 -.00000286  00000-0 -12120-3 0  9996
2 25407  71.0126 313.5475 0010081 248.5418 111.4630 14.15769439  6356
Source of the keplerian elements: AFSPC